Location: Aufkirchen
(47.9603°N, 11.3653°E)
Time: 15:33:45
(UTC+01:00)

Transit 2A - Pass Details

Date: 01 December 2020
Orbit: 599 x 960 km, 66.7° (Epoch: 25 January)

Event Time Altitude Azimuth Distance (km) Brightness Sun altitude
Rises 00:33:23 0° 327° (NNW) 3,362 - -63.2°
Reaches altitude 10° 00:36:10 10° 337° (NNW) 2,363 - -63.1°
Maximum altitude 00:41:02 33° 41° (NE) 1,219 - -62.8°
Drops below altitude 10° 00:45:26 10° 106° (ESE) 2,138 - -62.6°
Sets 00:47:51 0° 116° (ESE) 2,998 - -62.4°
